Regional Weather Roundup
Issued by NWS

Home | Current Version | Previous Version | Text Only | Print | Product List | Glossary Off
Versions: 1 2 3 4 5 6 7 8 9 10 11 12 13 14 15 16 17 18 19 20 21 22 23 24 25 26 27 28 29 30 31 32 33 34 35 36 37 38 39 40 41 42 43 44 45 46 47 48 49 50

000
ASUS43 KDTX 242301
RWRMI
MICHIGAN HOURLY REGIONAL WEATHER ROUNDUP
NATIONAL WEATHER SERVICE DETROIT/PONTIAC MI
700 PM EDT MON JUL 24 2017

NOTE: "FAIR" INDICATES FEW OR NO CLOUDS BELOW 12,000 FEET WITH NO
SIGNIFICANT WEATHER AND/OR OBSTRUCTION TO VISIBILITY.

MIZ047>049-052>055-059>063-066>070-074>076-081>083-250000-
SOUTHEAST LOWER MICHIGAN

CITY           SKY/WX    TMP DP  RH WIND       PRES   REMARKS
ADRIAN         SUNNY     72  55  55 NE7       30.05R
ALMA           SUNNY     76  48  37 NE7       30.04S
ANN ARBOR      MOSUNNY   74  55  51 N9        30.04R
BAD AXE        MOSUNNY   66  53  63 N12       30.05R
CARO           SUNNY     69  52  55 N6        30.04R
DETROIT CITY   SUNNY     71  53  52 NE10      30.03R
DETROIT        PTSUNNY   74  53  48 N9        30.03R
FLINT          MOSUNNY   72  54  53 N9        30.05R
GROSSE ILE     PTSUNNY   74  53  47 NE7       30.02R
HILLSDALE      CLOUDY    70  54  56 NE6       30.06R
HOWELL         MOSUNNY   72  52  50 NE6       30.05R

CITY           SKY/WX    TMP DP  RH WIND       PRES   REMARKS
JACKSON        SUNNY     71  51  49 N9        30.06R
LAMBERTVILLE   MOSUNNY   71  57  61 N6        30.03R
LANSING        MOSUNNY   73  53  49 E3        30.05R
LAPEER         FAIR      68  54  60 NE5       30.05R
MASON          MOSUNNY   73  56  55 NE3       30.06R
MONROE         PTSUNNY   73  57  57 NE6       30.02R
MT. CLEMENS    MOSUNNY   70  55  58 N14       30.02R
PONTIAC        MOSUNNY   70  50  49 N12G21    30.04R
PORT HOPE        N/A     67  58  72 N12G17    30.03R
PORT HURON     PTSUNNY   70  55  60 N8        30.03R
TRI CITIES     SUNNY     72  58  61 NE9       30.05R
MIDLAND        FAIR      72  56  57 E8        30.04R
TROY           PTSUNNY   73  51  45 N12G21    30.05R
SAGINAW HB     SUNNY     70  54  56 NE9       30.04S
$$
MIZ043>046-050>051-056>058-064>065-071>073-077>080-250000-
SOUTHWEST LOWER MICHIGAN

CITY           SKY/WX    TMP DP  RH WIND       PRES   REMARKS
BATTLE CREEK   MOSUNNY   74  55  51 NE5       30.06R
BENTON HARBOR  MOSUNNY   72  60  66 VRB6      30.06R
BIG RAPIDS     SUNNY     75  50  41 E7        30.04S
COLDWATER      MOSUNNY   69  57  66 NE5       30.06R
FREMONT        FAIR      75  48  38 CALM      30.04R
HOLLAND        SUNNY     73  59  61 W8        30.06R
GRAND RAPIDS   MOSUNNY   77  54  44 VRB3      30.04R
IONIA          FAIR      74  53  47 CALM      30.04R
KALAMAZOO      MOSUNNY   76  53  44 NE6       30.06R
LUDINGTON      CLOUDY    69  55  60 NW13      30.06R
MARSHALL       MOSUNNY   74  54  49 CALM      30.05S
MOUNT PLEASANT MOSUNNY   77  46  33 NE5       30.03S
MUSKEGON       MOSUNNY   76  58  53 W9        30.04R
SOUTH HAVEN    SUNNY     72  62  72 NW12      30.06R
$$
MIZ016>042-250000-
NORTHERN LOWER MICHIGAN

CITY           SKY/WX    TMP DP  RH WIND       PRES   REMARKS
ALPENA         SUNNY     74  51  44 N10       30.05R
BEAVER ISLAND  SUNNY     73  48  40 N6        30.08R
BELLAIRE       SUNNY     73  47  38 N3        30.06R
CADILLAC       MOSUNNY   75  51  43 NE3       30.06R
CHARLEVOIX     SUNNY     70  51  50 NW7       30.10R
FRANKFORT      SUNNY     71  49  44 N9        30.07R
GAYLORD        SUNNY     74  43  32 NE8       30.07R
GRAYLING       SUNNY     73  45  36 N7        30.07R
HARBOR SPRINGS SUNNY     73  44  35 NW8       30.05S
HOUGHTON LAKE  SUNNY     75  49  39 N6        30.06R
MANISTEE       SUNNY     72  52  49 NW13      30.06R
OSCODA         MOSUNNY   73  50  44 NE10G16   30.04R
PELLSTON       SUNNY     75  49  39 N8        30.06R
ROGERS CITY    SUNNY     72  48  42 NW5       30.05S
TRAVERSE CITY  MOSUNNY   73  48  41 N9        30.05R
$$
MIZ007>008-015-250000-
EASTERN UPPER MICHIGAN

CITY           SKY/WX    TMP DP  RH WIND       PRES   REMARKS
KINROSS        SUNNY     68  51  54 N14       30.06S
MACKINAC ISLAN SUNNY     72  52  48 N6        30.06R
NEWBERRY       SUNNY     68  50  53 N6        30.08S
S. S. MARIE    SUNNY     69  51  52 NW10      30.05S
MUNISING         N/A     68  60  75 N7        30.09R
$$
MIZ004>006-011>014-085-250000-
CENTRAL UPPER MICHIGAN

CITY           SKY/WX    TMP DP  RH WIND       PRES   REMARKS
MANISTIQUE     SUNNY     73  49  43 NE5       30.07R
ESCANABA       SUNNY     72  56  57 S8        30.08R
MENOMINEE      SUNNY     74  52  46 SE5       30.09S
SAWYER-GWINN   SUNNY     72  50  46 E7        30.09S
$$
MIZ001>003-009>011-084-250000-
WESTERN UPPER MICHIGAN

CITY           SKY/WX    TMP DP  RH WIND       PRES   REMARKS
IRON MOUNTAIN  SUNNY     77  50  38 S5        30.07R
HOUGHTON       SUNNY     75  51  43 NW9       30.06S
COPPER HARBOR    N/A     65  47  52 N7        30.06S
IRONWOOD       SUNNY     73  56  54 NE7       30.06F
$$

ABBREVIATIONS USED IN REMARKS
   TC - TEMPERATURE IN CELSIUS
  WCI - WIND CHILL INDEX
   HX - HEAT INDEX
  VSB - VISIBILITY





USA.gov is the U.S. government's official web portal to all federal, state and local government web resources and services.